Regional Weather Roundup
Issued by NWS

Home | Current Version | Previous Version | Graphics & Text | Print | Product List | Glossary On
Versions: 1 2 3 4 5 6 7 8 9 10 11 12 13 14 15 16 17 18 19 20 21 22 23 24 25 26 27 28 29 30 31 32 33 34 35 36 37 38 39 40 41 42 43 44 45 46 47 48 49 50
924
ASUS43 KFSD 102202
RWRSD

WEATHER ROUNDUP FOR SOUTH DAKOTA
NATIONAL WEATHER SERVICE SIOUX FALLS SD
400 PM CST WED FEB 10 2016

NOTE: "FAIR" INDICATES FEW OR NO CLOUDS BELOW 12,000 FEET WITH NO
SIGNIFICANT WEATHER AND/OR OBSTRUCTIONS TO VISIBILITY.


SDZ001>005-009-010-012>017-102300-
NORTHWEST AND NORTH CENTRAL SOUTH DAKOTA

CITY           SKY/WX    TMP DP  RH WIND       PRES   REMARKS
BUFFALO          N/A     51  31  46 NW21      29.93R
FAITH            N/A     48  30  49 N25       29.95R
MOBRIDGE       CLOUDY    27  20  75 NE7       30.01R WCI  19
$$

SDZ012>016-024>037-041>051-057-063-072>074-102300-
SOUTHWEST AND SOUTH CENTRAL SOUTH DAKOTA

CITY           SKY/WX    TMP DP  RH WIND       PRES   REMARKS
RAPID CTY ARPT CLOUDY    59  23  25 NW25G33   29.94R
PIERRE         SUNNY     41  28  60 N23       29.95R
CUSTER         CLOUDY    55  18  23 MISG      30.00R
ELLSWORTH AFB  CLOUDY    58  24  26 N25G31    29.95R
PHILIP         CLOUDY    54  32  43 N15       29.94R
PINE RIDGE     SUNNY     60  25  26 N15G24    29.94R
WINNER         FAIR      48  30  49 N15       29.92R
$$

SDZ004>011-016>023-039-040-102300-
NORTHEAST SOUTH DAKOTA

CITY           SKY/WX    TMP DP  RH WIND       PRES   REMARKS
ABERDEEN       CLOUDY    18  11  74 E9        30.08R WCI   7
WATERTOWN      CLOUDY    12   5  73 E12       30.02R WCI  -2
BROOKINGS      CLOUDY    13   8  81 E8        30.01R WCI   2
SISSETON         N/A     10   5  80 SE7       30.12R WCI  -1
$$

SDZ017-020-022-023-036>040-048>070-102300-
SOUTHEAST SOUTH DAKOTA

CITY           SKY/WX    TMP DP  RH WIND       PRES   REMARKS
SIOUX FALLS    CLOUDY    17  11  77 E14       30.01R WCI   3
HURON          CLOUDY    21  15  78 E12       30.04R WCI   9
MITCHELL       MOSUNNY   28  20  71 E12       30.00R WCI  18
YANKTON        MOSUNNY   25  19  80 E16       29.96R WCI  12
$$

ABBREVIATIONS USED IN REMARKS
   TC - TEMPERATURE IN CELSIUS
  WCI - WIND CHILL INDEX
   HX - HEAT INDEX
  VSB - VISIBILITY





USA.gov is the U.S. government's official web portal to all federal, state and local government web resources and services.